Weather Roundup
Issued by NWS Chicago, IL

Home | Current Version | Previous Version | Text Only | Print | Product List | Glossary On
Versions: 1 2 3 4 5 6 7 8 9 10 11 12 13 14 15 16 17 18 19 20 21 22 23 24 25 26 27 28 29 30 31 32 33 34 35 36 37 38 39 40 41 42 43 44 45 46 47 48 49 50
000
NZUS59 KLOT 252009
HRRLOT

CHICAGO AREA WEATHER ROUNDUP
NATIONAL WEATHER SERVICE CHICAGO/ROMEOVILLE IL
300 PM CDT THU AUG 25 2016

NOTE: "FAIR" INDICATES FEW OR NO CLOUDS BELOW 12,000 FEET WITH NO
SIGNIFICANT WEATHER AND/OR OBSTRUCTIONS TO VISIBILITY.

* THESE STATIONS ARE NOT UNDER NWS QUALITY CONTROL. THEY ALSO MAY NOT
  REPORT WEATHER SUCH AS PRECIPITATION OR FOG.

ILZ005-006-012>014-019>023-252100-
NORTHEAST ILLINOIS

CITY           SKY/WX    TMP DP  RH WIND       PRES   REMARKS
OHARE          PTSUNNY   83  63  50 NW5       30.02F HX  84
MIDWAY         PTSUNNY   85  66  53 NW6       30.02F HX  87
AURORA         CLOUDY    82  67  60 W6        30.05S HX  84
LANSING*       PTSUNNY   83  73  73 CALM      30.03F HX  88
JOLIET*        CLOUDY    83  69  62 W6        30.04S HX  87
WAUKEGAN       CLOUDY    81  64  56 VRB5      30.02F HX  82
DUPAGE AIRPORT CLOUDY    80  62  54 NW9       30.04S HX  81
WHEELING       CLOUDY    83  62  49 N7        30.03F HX  84
KANKAKEE*      PTSUNNY   82  71  68 W6        30.05F HX  86
MORRIS*        SUNNY     82  68  61 NW5       30.04S HX  85
LEWIS AIRPORT* MOSUNNY   82  71  70 W6        30.04S HX  85
NORTHERLY ISL    N/A     75  67  76 E1          N/A
$$

WIZ051-052-058>065-066-070>072-252100-
SOUTHEAST WISCONSIN

CITY           SKY/WX    TMP DP  RH WIND       PRES   REMARKS
MILWAUKEE      PTSUNNY   82  62  50 E3        30.02F HX  83
KENOSHA*       CLOUDY    80  62  54 W7        30.03F HX  81
RACINE*        SUNNY     82  60  47 W9        30.04S HX  82
BURLINGTON     PTSUNNY   78  59  50 CALM      30.04S HX  80
WAUKESHA       SUNNY     75  55  50 W6        30.05S
$$

INZ001>003-010>013-019-020-252100-
NORTHWEST INDIANA

CITY           SKY/WX    TMP DP  RH WIND       PRES   REMARKS
GARY*          MOSUNNY   81  72  74 NE6       30.04F HX  84
MICHIGAN CITY* NOT AVBL
RENSSELAER*    NOT AVBL
VALPARAISO     PTSUNNY   80  71  74 W6        30.04F HX  84
$$

LMZ740>746-252100-
SOUTHERN LAKE MICHIGAN

STATION/POSITION TIME  SKY/WX   TEMP WIND        PRES    VSBY
                                AIR  DIR/SP/G
                 (UTC)          (F)  (DEG/KT/KT) (MB)    (MI)
HARRISON CRIB    1900            74   80/  7/  7   N/A
BURNHAM HARBOR   2000            75  130/  3/  4   N/A
CALUMET HARBOR   1900            73   60/  5/  6 1016.9F
BURNS HARBOR     1917            74  360/  3/  4 1017.9S
MICHIGAN CITY    1900            75  260/  5/  5   N/A
$$

ABBREVIATIONS USED IN REMARKS
   TC - TEMPERATURE IN CELSIUS
  WCI - WIND CHILL INDEX
   HX - HEAT INDEX
  VSB - VISIBILITY
$$



USA.gov is the U.S. government's official web portal to all federal, state and local government web resources and services.